• In Uzbekistan
  • List of Countries
  • For 7 days
  • Water Temperature
  • Satellite Maps
  • Weather Map
  • Weather Widgets
  • user-avatar
    Login

    Hourly Weather Takeo

    Today, 24 January, Wednesday

    Time Temperature Precipitation Wind Pressure Humidity
    00:00 +27°C° 0.2 mm 2 mps 755 mmHg 84%
    01:00 +27°C° 0 mm 2 mps 755 mmHg 85%
    02:00 +27°C° 0 mm 1 mps 755 mmHg 86%
    03:00 +26°C° 0 mm 1 mps 755 mmHg 86%
    04:00 +26°C° 0 mm 1 mps 755 mmHg 87%
    05:00 +26°C° 0 mm 1 mps 755 mmHg 87%
    06:00 +26°C° 0 mm 1 mps 755 mmHg 87%
    07:00 +27°C° 0 mm 1 mps 755 mmHg 86%
    08:00 +28°C° 0.1 mm 1 mps 755 mmHg 80%
    09:00 +29°C° 0.1 mm 1 mps 755 mmHg 75%
    10:00 +30°C° 0.1 mm 1 mps 756 mmHg 70%
    11:00 +31°C° 0.4 mm 1 mps 755 mmHg 66%
    12:00 +32°C° 0.4 mm 2 mps 755 mmHg 63%
    13:00 +34°C° 0.4 mm 2 mps 754 mmHg 59%
    14:00 +34°C° 0.8 mm 2 mps 754 mmHg 59%
    15:00 +34°C° 0.8 mm 2 mps 753 mmHg 60%
    16:00 +33°C° 0.8 mm 1 mps 753 mmHg 60%
    17:00 +32°C° 1.7 mm 1 mps 753 mmHg 66%
    18:00 +30°C° 1.7 mm 2 mps 753 mmHg 72%
    19:00 +29°C° 1.7 mm 2 mps 754 mmHg 78%
    20:00 +29°C° 0.1 mm 2 mps 754 mmHg 79%
    21:00 +28°C° 0.1 mm 2 mps 754 mmHg 80%
    22:00 +28°C° 0.1 mm 2 mps 755 mmHg 81%
    23:00 +28°C° 0.2 mm 2 mps 755 mmHg 83%

    Tomorrow, 25 January, Thursday

    Time Temperature Precipitation Wind Pressure Humidity
    00:00 +27°C° 0.2 mm 2 mps 755 mmHg 84%
    01:00 +27°C° 0.2 mm 2 mps 755 mmHg 85%
    02:00 +27°C° 0 mm 2 mps 754 mmHg 86%
    03:00 +26°C° 0 mm 2 mps 754 mmHg 86%
    04:00 +26°C° 0 mm 1 mps 754 mmHg 87%
    05:00 +26°C° 0 mm 1 mps 754 mmHg 87%
    06:00 +26°C° 0 mm 1 mps 754 mmHg 87%
    07:00 +26°C° 0 mm 1 mps 755 mmHg 87%
    08:00 +27°C° 0 mm 1 mps 755 mmHg 81%
    09:00 +28°C° 0 mm 1 mps 756 mmHg 75%
    10:00 +30°C° 0 mm 2 mps 756 mmHg 69%
    11:00 +30°C° 0 mm 1 mps 755 mmHg 66%
    12:00 +31°C° 0 mm 1 mps 755 mmHg 62%
    13:00 +32°C° 0 mm 1 mps 754 mmHg 59%
    14:00 +32°C° 0 mm 1 mps 754 mmHg 60%
    15:00 +32°C° 0 mm 1 mps 753 mmHg 60%
    16:00 +32°C° 0 mm 1 mps 753 mmHg 61%
    17:00 +31°C° 0 mm 1 mps 753 mmHg 65%
    18:00 +30°C° 0 mm 1 mps 753 mmHg 69%
    19:00 +29°C° 0 mm 1 mps 754 mmHg 73%
    20:00 +29°C° 0 mm 1 mps 754 mmHg 75%
    21:00 +28°C° 0 mm 2 mps 755 mmHg 77%
    22:00 +28°C° 0 mm 2 mps 755 mmHg 80%
    23:00 +28°C° 0 mm 2 mps 755 mmHg 81%

    Day after tomorrow, 26 January, Friday

    Time Temperature Precipitation Wind Pressure Humidity
    00:00 +27°C° 0 mm 2 mps 755 mmHg 82%
    01:00 +27°C° 0 mm 2 mps 755 mmHg 84%
    02:00 +26°C° 0 mm 2 mps 755 mmHg 85%
    03:00 +26°C° 0 mm 1 mps 755 mmHg 85%
    04:00 +26°C° 0 mm 1 mps 754 mmHg 86%
    05:00 +26°C° 0 mm 1 mps 755 mmHg 86%
    06:00 +26°C° 0 mm 1 mps 755 mmHg 86%
    07:00 +26°C° 0 mm 1 mps 755 mmHg 86%
    08:00 +28°C° 0 mm 1 mps 756 mmHg 79%
    09:00 +29°C° 0 mm 1 mps 756 mmHg 72%
    10:00 +31°C° 0 mm 1 mps 757 mmHg 65%
    11:00 +32°C° 0.1 mm 1 mps 756 mmHg 61%
    12:00 +33°C° 0.1 mm 1 mps 755 mmHg 57%
    13:00 +34°C° 0.1 mm 1 mps 755 mmHg 53%
    14:00 +34°C° 0.1 mm 1 mps 754 mmHg 53%
    15:00 +34°C° 0.1 mm 1 mps 753 mmHg 52%
    16:00 +34°C° 0.1 mm 1 mps 753 mmHg 52%
    17:00 +33°C° 0.1 mm 1 mps 753 mmHg 57%
    18:00 +32°C° 0.1 mm 1 mps 754 mmHg 61%
    19:00 +31°C° 0.1 mm 1 mps 754 mmHg 65%
    20:00 +30°C° 0.1 mm 2 mps 755 mmHg 69%
    21:00 +29°C° 0.1 mm 2 mps 755 mmHg 73%
    22:00 +29°C° 0.1 mm 2 mps 756 mmHg 77%
    23:00 +28°C° 0.9 mm 2 mps 756 mmHg 80%

    27 January, Saturday

    Time Temperature Precipitation Wind Pressure Humidity
    00:00 +28°C° 0.9 mm 2 mps 755 mmHg 82%
    01:00 +27°C° 0.9 mm 2 mps 755 mmHg 85%
    02:00 +27°C° 0.5 mm 2 mps 755 mmHg 86%
    03:00 +27°C° 0.5 mm 2 mps 755 mmHg 87%
    04:00 +27°C° 0.5 mm 2 mps 754 mmHg 88%
    05:00 +27°C° 0 mm 1 mps 755 mmHg 88%
    06:00 +27°C° 0 mm 1 mps 755 mmHg 88%
    07:00 +27°C° 0 mm 1 mps 756 mmHg 88%
    08:00 +28°C° 0 mm 1 mps 756 mmHg 82%
    09:00 +29°C° 0 mm 1 mps 757 mmHg 76%
    10:00 +30°C° 0 mm 1 mps 757 mmHg 70%
    11:00 +31°C° 0.6 mm 1 mps 756 mmHg 67%
    12:00 +32°C° 0.6 mm 1 mps 756 mmHg 64%
    13:00 +33°C° 0.6 mm 1 mps 755 mmHg 61%
    14:00 +33°C° 1.2 mm 1 mps 754 mmHg 62%
    15:00 +32°C° 1.2 mm 1 mps 753 mmHg 63%
    16:00 +32°C° 1.2 mm 1 mps 753 mmHg 64%
    17:00 +31°C° 0.2 mm 1 mps 753 mmHg 69%
    18:00 +30°C° 0.2 mm 1 mps 754 mmHg 73%
    19:00 +29°C° 0.2 mm 2 mps 754 mmHg 78%
    20:00 +29°C° 0 mm 2 mps 755 mmHg 79%
    21:00 +29°C° 0 mm 2 mps 755 mmHg 79%
    22:00 +28°C° 0 mm 2 mps 756 mmHg 80%
    23:00 +28°C° 0 mm 2 mps 755 mmHg 81%

    28 January, Sunday

    Time Temperature Precipitation Wind Pressure Humidity
    00:00 +28°C° 0 mm 2 mps 755 mmHg 82%
    01:00 +27°C° 0 mm 2 mps 755 mmHg 84%
    02:00 +27°C° 0 mm 2 mps 755 mmHg 85%
    03:00 +27°C° 0 mm 2 mps 754 mmHg 86%
    04:00 +27°C° 0 mm 1 mps 754 mmHg 87%
    05:00 +27°C° 0 mm 1 mps 755 mmHg 87%
    06:00 +27°C° 0 mm 1 mps 755 mmHg 87%
    07:00 +27°C° 0 mm 1 mps 756 mmHg 87%
    08:00 +28°C° 0 mm 1 mps 756 mmHg 81%
    09:00 +29°C° 0 mm 1 mps 756 mmHg 75%
    10:00 +31°C° 0 mm 2 mps 757 mmHg 68%
    11:00 +32°C° 0.2 mm 2 mps 756 mmHg 64%
    12:00 +34°C° 0.2 mm 2 mps 755 mmHg 60%
    13:00 +35°C° 0.2 mm 2 mps 754 mmHg 56%
    14:00 +34°C° 0.1 mm 1 mps 754 mmHg 56%
    15:00 +34°C° 0.1 mm 1 mps 753 mmHg 56%
    16:00 +34°C° 0.1 mm 1 mps 752 mmHg 56%
    17:00 +32°C° 0.4 mm 1 mps 753 mmHg 62%
    18:00 +31°C° 0.4 mm 2 mps 754 mmHg 67%
    19:00 +30°C° 0.4 mm 2 mps 754 mmHg 72%
    20:00 +30°C° 0.1 mm 2 mps 755 mmHg 75%
    21:00 +29°C° 0.1 mm 3 mps 755 mmHg 78%
    22:00 +28°C° 0.1 mm 3 mps 756 mmHg 81%
    23:00 +28°C° 0.1 mm 2 mps 756 mmHg 83%

    29 January, Monday

    Time Temperature Precipitation Wind Pressure Humidity
    00:00 +28°C° 0.1 mm 2 mps 756 mmHg 84%
    01:00 +27°C° 0.1 mm 2 mps 756 mmHg 86%
    02:00 +27°C° 0 mm 2 mps 755 mmHg 87%
    03:00 +27°C° 0 mm 2 mps 755 mmHg 87%
    04:00 +27°C° 0 mm 1 mps 755 mmHg 88%
    05:00 +27°C° 0 mm 1 mps 755 mmHg 88%
    06:00 +27°C° 0 mm 1 mps 756 mmHg 88%
    07:00 +27°C° 0 mm 1 mps 756 mmHg 88%
    08:00 +28°C° 0 mm 1 mps 757 mmHg 81%
    09:00 +30°C° 0 mm 1 mps 757 mmHg 73%
    10:00 +31°C° 0 mm 2 mps 758 mmHg 66%
    11:00 +32°C° 0 mm 2 mps 757 mmHg 63%
    12:00 +34°C° 0 mm 2 mps 756 mmHg 60%
    13:00 +35°C° 0 mm 2 mps 755 mmHg 57%
    14:00 +35°C° 0.1 mm 2 mps 755 mmHg 57%
    15:00 +35°C° 0.1 mm 2 mps 754 mmHg 57%
    16:00 +34°C° 0.1 mm 1 mps 754 mmHg 57%
    17:00 +32°C° 0.9 mm 2 mps 754 mmHg 64%
    18:00 +31°C° 0.9 mm 2 mps 755 mmHg 70%
    19:00 +30°C° 0.9 mm 2 mps 755 mmHg 77%
    20:00 +29°C° 1.1 mm 2 mps 756 mmHg 79%
    21:00 +29°C° 1.1 mm 2 mps 757 mmHg 81%
    22:00 +28°C° 1.1 mm 2 mps 757 mmHg 83%
    23:00 +28°C° 0.2 mm 2 mps 757 mmHg 84%
    Show more